This is the latest recevied weather packets stored in our database for station/object KH6DH-13. If no packets are shown the sender has not sent any weather packets the latest 10 day(s).
| Time | Temp. | Humidity | Pressure | Rain* | Wind** | Luminosity | Snow |
|---|---|---|---|---|---|---|---|
| 1777434282 | 29.44° C | - | - | 0 mm | 2.24 m/s, 1° | - | - |
| 1777433681 | 30.56° C | - | - | 0 mm | 1.79 m/s, 63° | - | - |
| 1777433080 | 31.11° C | - | - | 0 mm | 2.24 m/s, 41° | - | - |
| 1777432479 | 32.78° C | - | - | 0 mm | 2.68 m/s, 73° | - | - |
| 1777431878 | 32.22° C | - | - | 0 mm | 1.79 m/s, 56° | - | - |
| 1777431277 | 32.22° C | - | - | 0 mm | 2.68 m/s, 121° | - | - |
| 1777430676 | 32.78° C | - | - | 0 mm | 2.24 m/s, 63° | - | - |
| 1777430075 | 32.22° C | - | - | 0 mm | 2.24 m/s, 59° | - | - |
| 1777429474 | 31.11° C | - | - | 0 mm | 2.68 m/s, 39° | - | - |
| 1777428873 | 30° C | - | - | 0 mm | 3.13 m/s, 55° | - | - |
| 1777428272 | 29.44° C | - | - | 0 mm | 2.68 m/s, 58° | - | - |
| 1777427671 | 28.89° C | - | - | 0 mm | 1.79 m/s, 55° | - | - |
| 1777427070 | 29.44° C | - | - | 0 mm | 3.13 m/s, 70° | - | - |
| 1777426469 | 29.44° C | - | - | 0 mm | 3.13 m/s, 104° | - | - |
| 1777425868 | 30° C | - | - | 0 mm | 2.68 m/s, 127° | - | - |
| 1777425267 | 30.56° C | - | - | 0 mm | 2.68 m/s, 83° | - | - |
| 1777424666 | 30° C | - | - | 0 mm | 3.13 m/s, 142° | - | - |
| 1777424065 | 29.44° C | - | - | 0 mm | 1.34 m/s, 58° | - | - |
| 1777423464 | 29.44° C | - | - | 0 mm | 2.68 m/s, 129° | - | - |
| 1777422863 | 29.44° C | - | - | 0 mm | 2.24 m/s, 49° | - | - |
| 1777422262 | 28.89° C | - | - | 0 mm | 1.79 m/s, 98° | - | - |
| 1777421661 | 29.44° C | - | - | 0 mm | 2.24 m/s, 75° | - | - |
| 1777421060 | 30° C | - | - | 0 mm | 2.68 m/s, 46° | - | - |
| 1777420459 | 29.44° C | - | - | 0 mm | 1.34 m/s, 73° | - | - |
| 1777419858 | 28.89° C | - | - | 0 mm | 3.13 m/s, 82° | - | - |
* Rain latest hour (hover to see other rain measurements)
** Current wind speed in m/s (hover to see current wind gust speed)